Regional Weather Roundup
Issued by NWS Little Rock, AR

Home | Current Version | Previous Version | Graphics & Text | Print | Product List | Glossary On
Versions: 1 2 3 4 5 6 7 8 9 10 11 12 13 14 15 16 17 18 19 20 21 22 23 24 25 26 27 28 29 30 31 32 33 34 35 36 37 38 39 40 41 42 43 44 45 46 47 48 49
000
ASUS44 KLZK 230605
RWRLZK

WEATHER ROUNDUP FOR ARKANSAS
NATIONAL WEATHER SERVICE LITTLE ROCK AR
100 AM CDT WED JUL 23 2014

NOTE: "FAIR" INDICATES FEW OR NO CLOUDS BELOW 12,000 FEET WITH NO
SIGNIFICANT WEATHER AND/OR OBSTRUCTIONS TO VISIBILITY.

ARZ001-003-010-029-230700-
NORTHWEST ARKANSAS

CITY           SKY/WX    TMP DP  RH WIND       PRES   REMARKS
FAYETTEVILLE   PTCLDY    74  72  93 SW5       30.12R
6HR MIN TEMP:  74; 6HR MAX TEMP:  88;

FORT SMITH     CLEAR     80  74  81 CALM      30.07S HX  85
6HR MIN TEMP:  79; 6HR MAX TEMP:  90;

HARRISON       PTCLDY    78  74  87 W6        30.11S
6HR MIN TEMP:  76; 6HR MAX TEMP:  88;

BENTONVILLE    CLEAR     79  73  83 S3        30.12S
6HR MIN TEMP:  77; 6HR MAX TEMP:  90;

ROGERS         CLEAR     78  74  87 S5        30.12S
6HR MIN TEMP:  78; 6HR MAX TEMP:  88;

SILOAM SPGS    CLEAR     75  70  83 S5        30.12S
6HR MIN TEMP:  75; 6HR MAX TEMP:  90;

HIGHFILL       CLEAR     76  75  97 SW7       30.11S FOG
6HR MIN TEMP:  76; 6HR MAX TEMP:  89;

$$

ARZ004-005-016-230700-
NORTH CENTRAL ARKANSAS

CITY           SKY/WX    TMP DP  RH WIND       PRES   REMARKS
BATESVILLE     CLEAR     73  70  88 CALM      30.09S
6HR MIN TEMP:  73; 6HR MAX TEMP:  86;

FLIPPIN        CLEAR     75  68  78 CALM      30.09S
6HR MIN TEMP:  75; 6HR MAX TEMP:  88;

MTN HOME       PTCLDY    75  70  84 S3        30.08S
6HR MIN TEMP:  75; 6HR MAX TEMP:  86;

$$

ARZ040-041-230700-
WEST CENTRAL ARKANSAS

CITY           SKY/WX    TMP DP  RH WIND       PRES   REMARKS
MENA           CLEAR     73  72  94 CALM      30.13R
MOUNT IDA      CLEAR     71  70  96 CALM      30.09R FOG
6HR MIN TEMP:  71; 6HR MAX TEMP:  82;

$$

ARZ009-017-025-026-028-230700-
NORTHEAST ARKANSAS

CITY           SKY/WX    TMP DP  RH WIND       PRES   REMARKS
CORNING        FAIR      73  73 100 S5        30.07S FOG
JONESBORO      CLEAR     71  69  93 CALM      30.07S
6HR MIN TEMP:  70; 6HR MAX TEMP:  85;

NEWPORT        CLEAR     74  72  93 S10       30.09R
6HR MIN TEMP:  74; 6HR MAX TEMP:  87;

WALNUT RIDGE   CLEAR     73  57  56 S6        30.07S
6HR MIN TEMP:  73; 6HR MAX TEMP:  88;

BLYTHEVILLE    CLEAR     75  71  87 S3        30.07S
6HR MIN TEMP:  75; 6HR MAX TEMP:  86;

$$

ARZ022-023-033-042-044-230700-
CENTRAL ARKANSAS

CITY           SKY/WX    TMP DP  RH WIND       PRES   REMARKS
LITTLE ROCK    CLEAR     74  70  87 CALM      30.09R
6HR MIN TEMP:  74; 6HR MAX TEMP:  86;

N LITTLE ROCK    N/A     74  71  90 SW3       30.09R
6HR MIN TEMP:  74; 6HR MAX TEMP:  85;

JACKSONVILLE   CLEAR     70  68  94 CALM      30.09R
6HR MIN TEMP:  70; 6HR MAX TEMP:  87; 6HR PCP: TRACE;

SEARCY         FOG       70  70 100 CALM      30.10R VSB 1
6HR MIN TEMP:  71; 6HR MAX TEMP:  87;

HOT SPRINGS    CLEAR     73  69  87 CALM      30.10R
6HR MIN TEMP:  72; 6HR MAX TEMP:  86;

RUSSELLVILLE   CLEAR     74  71  91 CALM      30.08R
6HR MIN TEMP:  74; 6HR MAX TEMP:  87;

CLINTON        FAIR      72  72 100 CALM      30.11R FOG
$$

ARZ036-230700-
EAST ARKANSAS

CITY           SKY/WX    TMP DP  RH WIND       PRES   REMARKS
WEST MEMPHIS   CLEAR     73  73 100 CALM      30.06S
6HR MIN TEMP:  73; 6HR MAX TEMP:  87;

$$

ARZ050-053-066-070-073-230700-
SOUTHWEST ARKANSAS

CITY           SKY/WX    TMP DP  RH WIND       PRES   REMARKS
ARKADELPHIA    FAIR      71  71 100 CALM      30.09R FOG
6HR MIN TEMP:  71; 6HR MAX TEMP:  88;

CAMDEN         FOG       72  68  88 CALM      30.07S VSB 1
TEXARKANA      CLEAR     74  70  87 SE3       30.08R
6HR MIN TEMP:  72; 6HR MAX TEMP:  88;

EL DORADO      CLEAR     71  70  96 CALM      30.07S
6HR MIN TEMP:  71; 6HR MAX TEMP:  86;

DE QUEEN       FOG       71  71 100 CALM      30.07R VSB 1/4
6HR MIN TEMP:  71; 6HR MAX TEMP:  86;

$$

ARZ056-057-069-230700-
SOUTHEAST ARKANSAS

CITY           SKY/WX    TMP DP  RH WIND       PRES   REMARKS
PINE BLUFF     CLEAR     73  71  93 CALM      30.08R
6HR MIN TEMP:  71; 6HR MAX TEMP:  86;

STUTTGART      CLEAR     75  70  83 CALM      30.09S
6HR MIN TEMP:  75; 6HR MAX TEMP:  86;

MONTICELLO     CLEAR     73  70  90 CALM      30.07S
6HR MIN TEMP:  72; 6HR MAX TEMP:  87;


$$




USA.gov is the U.S. government's official web portal to all federal, state and local government web resources and services.